Other Public Products
Issued by NWS Charleston, SC

Current Version | Previous Version | Graphics & Text | Print | Product List | Glossary On
Versions: 1 2 3 4 5 6 7 8 9 10 11 12 13 14 15 16 17 18 19 20 21 22 23 24 25 26 27 28 29 30 31 32 33 34 35 36 37 38 39 40 41 42 43 44 45 46 47 48 49 50
537 FPUS82 KCHS 250927 OPUCHS TEST...KCHS/KSAV Gateway Observations...TEST National Weather Service Charleston SC 500 AM EDT SUN JUN 25 2017 NOTE: "fair" indicates few or no clouds below 12,000 feet with no significant weather and/or obstructions to visibility. SCZ050-WAZ558-NCZ071-TXZ119-213-PAZ071-DCZ001-FLZ074-172-MI076- NYZ176-178-MAZ016-IL014-TNZ027-NJZ106-GAZ044-MD014-251000- ...Gateway Observations for Charleston International... CITY SKY/WX TMP DP RH WIND PRES REMARKS Chas Airport PTCLDY 76 74 93 SW5 30.01F Seattle CLEAR 71 49 45 N13 29.96F Charlotte CLOUDY 70 67 90 NW5 30.04S Dallas DFW CLOUDY 73 66 78 NE7 30.16F Dallas Love MOCLDY 75 64 68 E7 30.17F Philladelphia PTCLDY 70 60 70 N6 29.95R Wash National MOCLDY 73 61 65 N6 29.98R Baltimore PTCLDY 68 60 75 W5 29.96R Miami PTCLDY 83 75 77 SE10 30.07F HX 90 Detroit PTCLDY 56 49 77 SW7 29.99S Newark PTCLDY 70 58 65 NW3 29.94R Laguardia CLEAR 70 62 76 NW7 29.93R J F K PTCLDY 69 61 75 CALM 29.95R Boston Logan PTCLDY 71 52 50 W9 29.88R Ft. Lauderdale PTCLDY 82 76 81 SE9 30.06S Chicago O`Hare PTCLDY 56 47 71 W8 30.04F Chicago Midway CLEAR 58 47 66 W8 30.05S Houston Bush TSTM 77 75 93 NE8 30.09R FOG Houston Hobby CLOUDY 79 75 87 N7 30.08S Nashville MOCLDY 63 55 75 CALM 30.18R Atlanta PTCLDY 69 66 90 NW8 30.08S $$ GAZ044-118-TXZ119-213-NCZ071-DCZ001-MDZ014-506-PAZ021-071-NJZ106- NYZ176-178-MAZ106-OHZ011-021-055-MIZ076-KYZ091-ILZ014-INZ047- MNZ060-ONZ431-251000- ...Gateway Observations for Savannah International... CITY SKY/WX TMP DP RH WIND PRES REMARKS Savannah Arpt CLEAR 77 72 84 S3 30.04S Atlanta PTCLDY 69 66 90 NW8 30.08S Charlotte CLOUDY 70 67 90 NW5 30.04S Dallas DFW CLOUDY 73 66 78 NE7 30.16F Houston Bush TSTM 77 75 93 NE8 30.09R FOG Wash National MOCLDY 73 61 65 N6 29.98R Wash Dulles PTCLDY 65 59 81 CALM 29.98S Baltimore PTCLDY 68 60 75 W5 29.96R Philadelphia PTCLDY 70 60 70 N6 29.95R Newark PTCLDY 70 58 65 NW3 29.94R Laguardia CLEAR 70 62 76 NW7 29.93R J F K PTCLDY 69 61 75 CALM 29.95R Boston PTCLDY 71 52 50 W9 29.88R Pittsburg MOCLDY 61 57 87 W3 30.02R Akron PTCLDY 60 52 74 W6 30.03S Cleveland PTCLDY 62 53 72 SW7 30.03S Cincinnati CLEAR 52 51 97 S5 30.11R Columbus CLEAR 55 51 87 W7 30.07R Detroit PTCLDY 56 49 77 SW7 29.99S Chicago O`Hare PTCLDY 56 47 71 W8 30.04F Minneapolis CLOUDY 57 47 69 NW9 30.07S Indianapolis CLEAR 55 50 83 SW6 30.10S Toronto Canada PTCLDY 57 54 88 W5 29.92R $$

USA.gov is the U.S. government's official web portal to all federal, state and local government web resources and services.